• In Lithuania
  • List of Countries
  • For 7 days
  • Water Temperature
  • Satellite Maps
  • Weather Map
  • Weather Widgets
  • user-avatar
    Login

    Hourly Weather Mvanza

    Today, 21 July, Saturday

    Time Temperature Precipitation Wind Pressure Humidity
    00:00 +24°C° 0 mm 3 mps 662 mmHg 48%
    01:00 +22°C° 0 mm 4 mps 662 mmHg 49%
    02:00 +22°C° 0 mm 5 mps 662 mmHg 50%
    03:00 +21°C° 0 mm 5 mps 662 mmHg 53%
    04:00 +21°C° 0 mm 5 mps 662 mmHg 55%
    05:00 +20°C° 0 mm 4 mps 662 mmHg 57%
    06:00 +21°C° 0 mm 5 mps 663 mmHg 55%
    07:00 +22°C° 0 mm 5 mps 663 mmHg 54%
    08:00 +22°C° 0 mm 5 mps 664 mmHg 53%
    09:00 +25°C° 0 mm 5 mps 664 mmHg 48%
    10:00 +27°C° 0 mm 4 mps 664 mmHg 43%
    11:00 +28°C° 0 mm 4 mps 665 mmHg 38%
    12:00 +29°C° 0 mm 3 mps 664 mmHg 36%
    13:00 +30°C° 0 mm 3 mps 664 mmHg 34%
    14:00 +31°C° 0 mm 2 mps 664 mmHg 33%
    15:00 +30°C° 0 mm 2 mps 663 mmHg 34%
    16:00 +30°C° 0 mm 2 mps 663 mmHg 34%
    17:00 +30°C° 0 mm 2 mps 663 mmHg 35%
    18:00 +28°C° 0 mm 2 mps 663 mmHg 38%
    19:00 +27°C° 0 mm 2 mps 662 mmHg 41%
    20:00 +26°C° 0 mm 1 mps 662 mmHg 44%
    21:00 +26°C° 0 mm 2 mps 663 mmHg 44%
    22:00 +26°C° 0 mm 2 mps 663 mmHg 44%
    23:00 +25°C° 0 mm 2 mps 663 mmHg 44%

    Tomorrow, 22 July, Sunday

    Time Temperature Precipitation Wind Pressure Humidity
    00:00 +25°C° 0 mm 3 mps 663 mmHg 45%
    01:00 +25°C° 0 mm 4 mps 663 mmHg 47%
    02:00 +25°C° 0 mm 5 mps 663 mmHg 48%
    03:00 +23°C° 0 mm 5 mps 663 mmHg 51%
    04:00 +22°C° 0 mm 5 mps 663 mmHg 53%
    05:00 +22°C° 0 mm 5 mps 663 mmHg 56%
    06:00 +22°C° 0 mm 5 mps 663 mmHg 55%
    07:00 +22°C° 0 mm 5 mps 663 mmHg 55%
    08:00 +23°C° 0 mm 5 mps 664 mmHg 54%
    09:00 +25°C° 0 mm 5 mps 664 mmHg 49%
    10:00 +27°C° 0 mm 5 mps 664 mmHg 44%
    11:00 +28°C° 0 mm 5 mps 665 mmHg 40%
    12:00 +29°C° 0 mm 4 mps 664 mmHg 37%
    13:00 +30°C° 0 mm 4 mps 664 mmHg 35%
    14:00 +31°C° 0 mm 3 mps 663 mmHg 32%
    15:00 +31°C° 0 mm 3 mps 663 mmHg 33%
    16:00 +30°C° 0 mm 3 mps 662 mmHg 33%
    17:00 +30°C° 0 mm 3 mps 662 mmHg 34%
    18:00 +29°C° 0 mm 3 mps 662 mmHg 36%
    19:00 +28°C° 0 mm 3 mps 662 mmHg 39%
    20:00 +27°C° 0 mm 2 mps 662 mmHg 42%
    21:00 +26°C° 0 mm 3 mps 663 mmHg 42%
    22:00 +26°C° 0 mm 4 mps 663 mmHg 43%
    23:00 +26°C° 0 mm 5 mps 663 mmHg 44%

    Day after tomorrow, 23 July, Monday

    Time Temperature Precipitation Wind Pressure Humidity
    00:00 +25°C° 0 mm 5 mps 663 mmHg 45%
    01:00 +23°C° 0 mm 6 mps 663 mmHg 47%
    02:00 +23°C° 0 mm 6 mps 662 mmHg 49%
    03:00 +22°C° 0 mm 6 mps 663 mmHg 51%
    04:00 +22°C° 0 mm 6 mps 663 mmHg 53%
    05:00 +21°C° 0 mm 7 mps 663 mmHg 55%
    06:00 +22°C° 0 mm 7 mps 663 mmHg 54%
    07:00 +22°C° 0 mm 7 mps 664 mmHg 53%
    08:00 +22°C° 0 mm 7 mps 664 mmHg 52%
    09:00 +24°C° 0 mm 7 mps 664 mmHg 46%
    10:00 +26°C° 0 mm 6 mps 665 mmHg 41%
    11:00 +28°C° 0 mm 6 mps 665 mmHg 36%
    12:00 +29°C° 0 mm 5 mps 664 mmHg 34%
    13:00 +30°C° 0 mm 4 mps 664 mmHg 31%
    14:00 +32°C° 0 mm 4 mps 663 mmHg 29%
    15:00 +31°C° 0 mm 3 mps 663 mmHg 30%
    16:00 +30°C° 0 mm 3 mps 662 mmHg 30%
    17:00 +30°C° 0 mm 3 mps 662 mmHg 30%
    18:00 +29°C° 0 mm 3 mps 662 mmHg 33%
    19:00 +28°C° 0 mm 3 mps 662 mmHg 35%
    20:00 +26°C° 0 mm 3 mps 663 mmHg 37%
    21:00 +26°C° 0 mm 4 mps 663 mmHg 39%
    22:00 +25°C° 0 mm 5 mps 663 mmHg 41%
    23:00 +24°C° 0 mm 6 mps 663 mmHg 43%

    24 July, Tuesday

    Time Temperature Precipitation Wind Pressure Humidity
    00:00 +23°C° 0 mm 6 mps 663 mmHg 45%
    01:00 +22°C° 0 mm 6 mps 663 mmHg 48%
    02:00 +22°C° 0 mm 6 mps 662 mmHg 50%
    03:00 +21°C° 0 mm 6 mps 662 mmHg 53%
    04:00 +21°C° 0 mm 6 mps 662 mmHg 55%
    05:00 +20°C° 0 mm 6 mps 663 mmHg 57%
    06:00 +21°C° 0 mm 6 mps 663 mmHg 56%
    07:00 +21°C° 0 mm 7 mps 664 mmHg 54%
    08:00 +22°C° 0 mm 7 mps 664 mmHg 53%
    09:00 +23°C° 0 mm 7 mps 665 mmHg 47%
    10:00 +26°C° 0 mm 6 mps 665 mmHg 42%
    11:00 +27°C° 0 mm 6 mps 665 mmHg 37%
    12:00 +28°C° 0 mm 5 mps 664 mmHg 35%
    13:00 +29°C° 0 mm 4 mps 663 mmHg 33%
    14:00 +30°C° 0 mm 3 mps 662 mmHg 30%
    15:00 +30°C° 0 mm 3 mps 662 mmHg 31%
    16:00 +30°C° 0 mm 3 mps 662 mmHg 31%
    17:00 +29°C° 0 mm 2 mps 662 mmHg 32%
    18:00 +28°C° 0 mm 2 mps 662 mmHg 34%
    19:00 +27°C° 0 mm 2 mps 662 mmHg 36%
    20:00 +26°C° 0 mm 2 mps 662 mmHg 39%
    21:00 +25°C° 0 mm 2 mps 662 mmHg 39%
    22:00 +25°C° 0 mm 2 mps 663 mmHg 39%
    23:00 +25°C° 0 mm 3 mps 663 mmHg 39%

    25 July, Wednesday

    Time Temperature Precipitation Wind Pressure Humidity
    00:00 +24°C° 0 mm 3 mps 662 mmHg 43%
    01:00 +22°C° 0 mm 3 mps 662 mmHg 47%
    02:00 +22°C° 0 mm 4 mps 662 mmHg 51%
    03:00 +21°C° 0 mm 4 mps 662 mmHg 52%
    04:00 +21°C° 0 mm 4 mps 662 mmHg 53%
    05:00 +20°C° 0 mm 4 mps 662 mmHg 55%
    06:00 +21°C° 0 mm 5 mps 663 mmHg 53%
    07:00 +22°C° 0 mm 5 mps 663 mmHg 51%
    08:00 +22°C° 0 mm 6 mps 664 mmHg 50%
    09:00 +25°C° 0 mm 5 mps 664 mmHg 45%
    10:00 +26°C° 0 mm 5 mps 664 mmHg 40%
    11:00 +28°C° 0 mm 4 mps 664 mmHg 35%
    12:00 +29°C° 0 mm 3 mps 664 mmHg 33%
    13:00 +30°C° 0 mm 2 mps 663 mmHg 31%
    14:00 +31°C° 0 mm 1 mps 662 mmHg 30%
    15:00 +31°C° 0 mm 2 mps 662 mmHg 30%
    16:00 +30°C° 0 mm 2 mps 662 mmHg 31%
    17:00 +29°C° 0 mm 2 mps 662 mmHg 32%
    18:00 +28°C° 0 mm 2 mps 662 mmHg 37%
    19:00 +27°C° 0 mm 2 mps 662 mmHg 42%
    20:00 +25°C° 0 mm 2 mps 662 mmHg 47%
    21:00 +25°C° 0 mm 2 mps 662 mmHg 48%
    22:00 +25°C° 0 mm 1 mps 662 mmHg 50%
    23:00 +24°C° 0 mm 1 mps 662 mmHg 51%

    26 July, Thursday

    Time Temperature Precipitation Wind Pressure Humidity
    00:00 +24°C° 0 mm 1 mps 662 mmHg 49%
    01:00 +24°C° 0 mm 1 mps 661 mmHg 48%
    02:00 +24°C° 0 mm 2 mps 661 mmHg 47%
    03:00 +24°C° 0 mm 2 mps 661 mmHg 46%
    04:00 +24°C° 0 mm 3 mps 662 mmHg 44%
    05:00 +24°C° 0 mm 3 mps 662 mmHg 43%
    06:00 +23°C° 0 mm 4 mps 663 mmHg 43%
    07:00 +25°C° 0 mm 4 mps 663 mmHg 44%
    08:00 +25°C° 0 mm 5 mps 664 mmHg 45%
    09:00 +26°C° 0 mm 4 mps 664 mmHg 42%
    10:00 +27°C° 0 mm 4 mps 664 mmHg 39%
    11:00 +29°C° 0 mm 3 mps 664 mmHg 36%
    12:00 +30°C° 0 mm 3 mps 664 mmHg 35%
    13:00 +30°C° 0 mm 2 mps 663 mmHg 33%
    14:00 +31°C° 0 mm 1 mps 663 mmHg 31%
    15:00 +31°C° 0 mm 1 mps 662 mmHg 33%
    16:00 +30°C° 0 mm 2 mps 662 mmHg 34%
    17:00 +29°C° 0 mm 2 mps 662 mmHg 35%
    18:00 +28°C° 0 mm 1 mps 662 mmHg 37%
    19:00 +27°C° 0 mm 1 mps 662 mmHg 39%
    20:00 +25°C° 0 mm 0 mps 662 mmHg 41%
    21:00 +26°C° 0 mm 1 mps 662 mmHg 41%
    22:00 +26°C° 0 mm 1 mps 662 mmHg 42%
    23:00 +26°C° 0 mm 1 mps 662 mmHg 42%
    Show more